Date,TemperatureHighF,TemperatureAvgF,TemperatureLowF,DewpointHighF,DewpointAvgF,DewpointLowF,HumidityHigh,HumidityAvg,HumidityLow,PressureMaxIn,PressureMinIn,WindSpeedMaxMPH,WindSpeedAvgMPH,GustSpeedMaxMPH,PrecipitationSumIn
2013-4-1,79.7,70.7,63.5,64.1,61.1,56.3,88,73,51,30.02,29.93,14,7,18,0.00
2013-4-2,82.2,70.6,62.3,62.8,55.2,46.5,93,64,32,30.09,29.99,7,3,18,0.00
2013-4-3,82.1,70.0,60.6,65.6,62.0,56.4,93,77,53,30.10,29.96,14,4,18,0.13
2013-4-4,72.3,69.3,67.3,67.6,65.6,63.5,95,88,81,30.02,29.87,18,5,27,0.01
2013-4-5,73.0,65.9,56.0,65.7,61.2,53.3,93,85,67,30.01,29.80,12,6,15,0.00
2013-4-6,73.7,62.9,51.8,57.5,54.4,49.3,92,75,55,30.15,30.00,11,6,16,0.00
2013-4-7,77.8,67.2,57.6,61.5,57.1,54.7,95,73,45,30.17,30.07,8,3,12,0.00
2013-4-8,82.7,71.8,61.5,63.1,59.4,53.6,90,68,40,30.14,30.05,7,3,15,0.00
2013-4-9,82.3,72.4,63.9,67.1,61.6,56.2,94,71,46,30.17,30.07,11,4,13,0.00
2013-4-10,85.7,76.5,62.8,68.6,63.3,59.2,88,66,43,30.13,29.98,8,4,14,0.00
2013-4-11,87.1,77.7,72.5,71.5,69.2,67.4,93,77,53,30.00,29.81,14,8,20,0.07
2013-4-12,82.0,76.5,73.4,72.8,71.0,69.4,93,83,68,29.90,29.81,14,7,20,0.01
2013-4-13,85.3,75.0,66.7,69.5,63.4,52.3,91,70,37,29.99,29.87,8,2,20,0.00
2013-4-14,85.6,73.3,65.8,72.4,65.7,57.1,89,78,61,29.99,29.83,12,4,30,0.03
2013-4-15,88.2,75.0,65.2,66.8,63.6,60.8,89,70,46,30.09,29.88,8,3,20,0.00
2013-4-16,85.1,74.2,66.2,69.5,66.2,63.0,95,78,57,30.16,30.05,10,4,20,0.00
2013-4-17,82.2,72.3,64.7,69.3,64.5,61.0,96,79,50,30.16,30.05,10,3,15,0.00
2013-4-18,86.8,76.0,66.1,69.7,65.3,59.1,95,72,43,30.07,29.94,8,2,15,0.00
2013-4-19,86.9,76.6,71.4,72.1,69.9,67.4,92,81,54,30.01,29.96,14,7,19,0.00
2013-4-22,69.5,64.3,62.7,64.8,60.9,59.5,90,89,85,30.10,30.02,12,8,18,0.00
2013-4-23,78.8,68.5,60.4,63.2,59.2,56.7,95,75,47,30.13,30.03,12,6,19,0.00
2013-4-24,83.2,73.0,57.9,63.2,59.0,53.9,94,64,37,30.15,30.06,7,3,19,0.00
2013-4-25,85.3,74.3,62.8,65.8,61.6,47.8,93,67,28,30.20,30.10,7,2,10,0.00
2013-4-26,85.2,75.2,67.4,65.8,63.9,61.0,86,69,45,30.25,30.15,11,3,16,0.00
2013-4-27,83.6,73.3,65.0,67.4,63.3,59.3,94,73,45,30.24,30.10,10,4,16,0.00
2013-4-28,80.8,72.5,65.7,67.0,64.2,62.5,93,76,55,30.14,29.99,10,4,15,0.00
2013-4-29,83.2,74.5,66.5,67.9,64.1,62.1,90,71,52,30.03,29.90,10,3,15,0.01
2013-4-30,85.9,72.8,66.7,68.7,65.3,58.0,95,80,39,30.01,29.90,14,2,17,0.16